Weather History for KTSP - November, 2012

Change the Weather History Date:

Friday, November 9, 2012

  Actual Average Record
Temperature  
Mean Temperature 37 °F -  
Max Temperature 41 °F 61 °F 77 °F (2014)
Min Temperature 33 °F 36 °F 30 °F (2013)
Degree Days  
Heating Degree Days 28    
Moisture  
Dew Point 32 °F    
Average Humidity 84    
Maximum Humidity 100    
Minimum Humidity 57    
Precipitation  
Precipitation 0.06 in - - ()
Sea Level Pressure  
Sea Level Pressure 29.87 in    
Wind  
Wind Speed 15 mph (NW)    
Max Wind Speed 20 mph    
Max Gust Speed 26 mph    
Visibility 8 miles    
Events Rain    
Averages and records for this station are not official NWS values.
T = Trace of Precipitation, MM = Missing Value Source: NWS Daily Summary

Daily Weather History Graph

Daily Weather History Graph

Search for Another Location

Airport or City:

Trip Planner

Search our weather history database for the weather conditions in past years. The results will help you decide how hot, cold, wet, or windy it might be!

Date:

Astronomy

Nov. 09, 2012 Rise Set
Actual Time 6:23 AM PST 4:51 PM PST
Civil Twilight 5:56 AM PST 5:18 PM PST
Nautical Twilight 5:26 AM PST 5:48 PM PST
Astronomical Twilight 4:56 AM PST 6:18 PM PST
Moon 1:37 AM PST (11/9) 1:58 PM PST (11/9)
Length of Visible Light 11h 21m
Length of Day
10h 28m
Waning Crescent, 22% of the Moon is Illuminated
Nov 9
Waning Crescent
Nov 13
New
Nov 20
First Quarter
Nov 28
Full
Dec 6
Last Quarter

Hourly Weather History & Observations

Time (PST) Temp. Windchill Dew Point Humidity Pressure Visibility Wind Dir Wind Speed Gust Speed Precip Events Conditions
12:15 AM 39.2 °F 31.2 °F 37.4 °F 93% 29.87 in 10.0 mi West 13.8 mph 20.7 mph N/A   Unknown
12:35 AM 39.2 °F 30.8 °F 37.4 °F 93% 29.86 in 2.5 mi WNW 15.0 mph 18.4 mph N/A Rain Light Rain
12:55 AM - - - N/A% - - North - - N/A   Unknown
1:15 AM - - - N/A% 29.86 in 5.0 mi WNW 19.6 mph 23.0 mph N/A Rain Light Rain
1:35 AM 39.2 °F 30.8 °F 37.4 °F 93% 29.86 in 3.0 mi NW 15.0 mph 20.7 mph N/A Rain Light Rain
1:55 AM 37.4 °F 28.9 °F 37.4 °F 100% 29.86 in 4.0 mi WNW 13.8 mph 20.7 mph N/A Rain Light Rain
2:15 AM - - - N/A% - - North - - N/A   Unknown
2:35 AM - - - N/A% - - North - - N/A   Unknown
2:55 AM - - - N/A% - - North - - N/A   Unknown
3:15 AM 37.4 °F - 37.4 °F 100% 29.83 in - North - - 0.01 in Rain Rain
3:35 AM 37.4 °F 27.5 °F 37.4 °F 100% 29.84 in 1.2 mi WNW 18.4 mph 24.2 mph 0.01 in Rain Light Rain
3:55 AM 37.4 °F 27.5 °F 37.4 °F 100% 29.84 in 4.0 mi NW 18.4 mph 23.0 mph 0.02 in Rain Light Rain
4:15 AM 35.6 °F 25.2 °F 35.6 °F 100% 29.84 in 5.0 mi NW 18.4 mph 25.3 mph N/A Rain Light Rain
4:35 AM 35.6 °F 24.8 °F 35.6 °F 100% 29.84 in 5.0 mi NW 19.6 mph 25.3 mph N/A Rain Light Rain
4:55 AM 35.6 °F 26.2 °F 35.6 °F 100% 29.84 in 3.0 mi NW 15.0 mph 23.0 mph N/A Rain Light Rain
5:15 AM 35.6 °F 25.2 °F 35.6 °F 100% 29.85 in 4.0 mi NW 18.4 mph 23.0 mph 0.01 in Rain Light Rain
5:35 AM 33.8 °F 22.8 °F 33.8 °F 100% 29.85 in 4.0 mi NW 18.4 mph 25.3 mph 0.01 in Rain Light Rain
5:55 AM 33.8 °F 23.2 °F 33.8 °F 100% 29.86 in 3.0 mi NW 17.3 mph 25.3 mph 0.02 in Rain Light Rain
6:15 AM 33.8 °F 23.2 °F 33.8 °F 100% 29.87 in 3.0 mi WNW 17.3 mph 23.0 mph 0.01 in Rain Light Rain
6:55 AM 33.8 °F 24.3 °F 33.8 °F 100% 29.87 in 7.0 mi NW 13.8 mph 19.6 mph 0.01 in Rain Light Rain
7:15 AM 33.8 °F 24.3 °F 33.8 °F 100% 29.88 in 3.0 mi NW 13.8 mph 21.9 mph 0.01 in Rain Light Rain
7:35 AM 33.8 °F 24.8 °F 33.8 °F 100% 29.88 in 7.0 mi NW 12.7 mph - 0.01 in Rain Light Rain
7:55 AM 35.6 °F 27.5 °F 35.6 °F 100% 29.88 in 8.0 mi WNW 11.5 mph - 0.01 in Rain Light Rain
8:15 AM 35.6 °F 27.1 °F 35.6 °F 100% 29.89 in 9.0 mi NW 12.7 mph - N/A   Overcast
8:35 AM 35.6 °F 27.1 °F 33.8 °F 93% 29.90 in 10.0 mi NW 12.7 mph 16.1 mph N/A   Overcast
8:55 AM 35.6 °F 27.5 °F 33.8 °F 93% 29.89 in 10.0 mi NW 11.5 mph - N/A   Overcast
9:15 AM 35.6 °F 27.5 °F 35.6 °F 100% 29.90 in 10.0 mi NW 11.5 mph 18.4 mph N/A   Overcast
9:35 AM 37.4 °F 29.8 °F 33.8 °F 87% 29.90 in 10.0 mi NW 11.5 mph - N/A   Overcast
9:55 AM 39.2 °F 30.5 °F 35.6 °F 87% 29.90 in 9.0 mi NNW 16.1 mph 19.6 mph N/A   Overcast
10:15 AM 39.2 °F 30.5 °F 33.8 °F 81% 29.90 in 9.0 mi NW 16.1 mph - N/A   Overcast
10:35 AM 37.4 °F 28.5 °F 32.0 °F 81% 29.90 in 10.0 mi NW 15.0 mph 19.6 mph N/A   Mostly Cloudy
10:55 AM 39.2 °F 30.8 °F 32.0 °F 75% 29.90 in 10.0 mi NW 15.0 mph - N/A   Overcast
11:15 AM - - - N/A% - 10.0 mi North - - N/A   Unknown
11:35 AM 39.2 °F 30.8 °F 32.0 °F 75% 29.88 in 10.0 mi NW 15.0 mph 19.6 mph N/A   Unknown
11:55 AM 39.2 °F 31.6 °F 30.2 °F 70% 29.87 in 10.0 mi NW 12.7 mph 18.4 mph N/A   Overcast
12:15 PM 39.2 °F 31.6 °F 28.4 °F 65% 29.87 in 10.0 mi NW 12.7 mph - N/A   Overcast
12:35 PM 39.2 °F 30.8 °F 30.2 °F 70% 29.86 in 10.0 mi NW 15.0 mph 23.0 mph N/A   Overcast
12:55 PM - - - N/A% - - North - - N/A   Unknown
1:15 PM - - - N/A% - - North - - N/A   Unknown
1:35 PM - - - N/A% - - North - - N/A   Unknown
1:55 PM 41.0 °F 32.8 °F 26.6 °F 57% 29.84 in 10.0 mi West 16.1 mph 23.0 mph N/A   Unknown
2:15 PM 41.0 °F 32.5 °F 26.6 °F 57% 29.83 in 10.0 mi West 17.3 mph 25.3 mph N/A   Mostly Cloudy
2:35 PM 41.0 °F 32.5 °F 26.6 °F 57% 29.83 in 10.0 mi WNW 17.3 mph 24.2 mph N/A   Mostly Cloudy
2:55 PM - - - N/A% - - North - - N/A   Unknown
3:15 PM - - - N/A% - - North - - N/A   Unknown
3:35 PM - - - N/A% 29.83 in - WNW 15.0 mph - N/A   Unknown
3:55 PM 39.2 °F 30.8 °F 26.6 °F 61% 29.84 in 10.0 mi West 15.0 mph 25.3 mph N/A   Unknown
4:15 PM 39.2 °F 31.6 °F 26.6 °F 61% 29.84 in 10.0 mi WNW 12.7 mph - N/A   Mostly Cloudy
4:35 PM 39.2 °F 30.2 °F 28.4 °F 65% 29.84 in 10.0 mi NW 17.3 mph 26.5 mph N/A   Mostly Cloudy
4:55 PM - - - N/A% - 10.0 mi North - - N/A   Unknown
5:15 PM - - - N/A% - - North - - N/A   Unknown
5:35 PM - - - N/A% - - North - - N/A   Unknown
5:55 PM - - - N/A% - - North - - N/A   Unknown
6:15 PM - - - N/A% - - North - - N/A   Unknown
6:35 PM 35.6 °F 25.9 °F 26.6 °F 70% 29.88 in 10.0 mi WNW 16.1 mph 20.7 mph N/A   Unknown
6:55 PM 35.6 °F 27.1 °F 24.8 °F 65% 29.88 in 10.0 mi WNW 12.7 mph 19.6 mph N/A   Unknown
7:15 PM 35.6 °F 25.9 °F 24.8 °F 65% 29.88 in 10.0 mi WNW 16.1 mph - N/A   Scattered Clouds
7:35 PM 35.6 °F 27.5 °F 24.8 °F 65% 29.90 in 10.0 mi WNW 11.5 mph - N/A   Partly Cloudy
7:55 PM 35.6 °F 27.5 °F 24.8 °F 65% 29.90 in 10.0 mi WNW 11.5 mph - N/A   Partly Cloudy
8:15 PM 35.6 °F 27.1 °F 24.8 °F 65% 29.91 in 10.0 mi WNW 12.7 mph - N/A   Mostly Cloudy
8:35 PM 35.6 °F 27.1 °F 28.4 °F 75% 29.91 in 10.0 mi West 12.7 mph - N/A   Overcast
8:55 PM - - - N/A% - 10.0 mi North - - N/A   Unknown